Regional Weather Roundup
Issued by NWS

Home | Current Version | Previous Version | Text Only | Print | Product List | Glossary Off
Versions: 1 2 3 4 5 6 7 8 9 10 11 12 13 14 15 16 17 18 19 20 21 22 23 24 25 26 27 28 29 30 31 32 33 34 35 36 37 38 39 40 41 42 43 44 45 46 47 48 49 50

000
ASUS43 KOAX 221710
RWRNE

WEATHER ROUNDUP FOR NEBRASKA
NATIONAL WEATHER SERVICE OMAHA NE
1200 PM CDT TUE AUG 22 2017

NOTES: SATELLITE DATA IS BEING USED TO AUGMENT CLOUD COVER ABOVE
       12000 FEET.
       "FAIR" INDICATES FEW OR NO CLOUDS BELOW 12,000 FEET WITH NO
       SIGNIFICANT WEATHER AND/OR OBSTRUCTIONS TO VISIBILITY.


NEZ001>004-019>022-054>056-221800-
NEBRASKA PANHANDLE

CITY           SKY/WX    TMP DP  RH WIND       PRES   REMARKS
SCOTTSBLUFF    SUNNY     76  49  38 SE17      30.29S
ALLIANCE       SUNNY     72  44  36 S14       30.30F
CHADRON        SUNNY     76  43  30 S13G21    30.25F
GORDON         FAIR      73  44  36 SW12      30.29F
KIMBALL        SUNNY     69  52  54 S16G22    30.35S
SIDNEY         SUNNY     72  46  39 S14       30.34F
$$

NEZ057>060-069>072-079>082-221800-
SOUTHWEST NEBRASKA

CITY           SKY/WX    TMP DP  RH WIND       PRES   REMARKS
NORTH PLATTE   SUNNY     74  54  49 SE7       30.29S
IMPERIAL       SUNNY     74  45  35 E7        30.31S
LEXINGTON      SUNNY     72  51  48 E5        30.29R
MCCOOK         SUNNY     73  54  51 VRB6      30.29R
OGALLALA       SUNNY     72  48  43 SE3       30.31S
$$

NEZ005>010-023>029-035>040-094-221800-
NORTH CENTRAL NEBRASKA

CITY           SKY/WX    TMP DP  RH WIND       PRES   REMARKS
VALENTINE      SUNNY     74  42  31 SW6       30.27S
AINSWORTH      SUNNY     70  45  40 S3        30.28S
BROKEN BOW     SUNNY     73  47  39 NE3       30.27S
O`NEILL        SUNNY     70  49  47 N8        30.26S
ORD            SUNNY     73  45  36 NE9       30.24F
THEDFORD       SUNNY     73  45  37 E5        30.30S
$$

NEZ041-046>049-061>064-073>077-083>087-221800-
SOUTH CENTRAL NEBRASKA

CITY           SKY/WX    TMP DP  RH WIND       PRES   REMARKS
GRAND ISLAND   SUNNY     73  51  46 NE10      30.25S
AURORA         SUNNY     71  50  48 N7        30.25R
HASTINGS       SUNNY     72  51  47 NE9       30.26S
HEBRON         SUNNY     76  54  45 NE10G16   30.21S
HOLDREGE       SUNNY     69  53  54 NE8       30.28R
KEARNEY        SUNNY     70  51  51 NE6       30.27R
YORK           SUNNY     72  52  49 N10       30.24R
$$

NEZ011>018-030>034-042>045-221800-
NORTHEAST NEBRASKA

CITY           SKY/WX    TMP DP  RH WIND       PRES   REMARKS
NORFOLK        SUNNY     71  48  43 N14       30.21R
ALBION         SUNNY     72  52  49 NE5       30.25R
BLAIR          SUNNY     71  49  45 N14       30.19S
COLUMBUS       SUNNY     71  54  54 N8        30.23S
FREMONT        SUNNY     72  50  45 N8        30.21S
TEKAMAH        SUNNY     73  51  46 N10       30.19R
WAYNE          SUNNY     70  49  47 N10       30.21S
$$

NEZ050>053-065>068-078-088>093-221800-
SOUTHEAST NEBRASKA

CITY           SKY/WX    TMP DP  RH WIND       PRES   REMARKS
LINCOLN        SUNNY     74  52  46 N12       30.21S
OMAHA EPPLEY   MOSUNNY   74  48  39 N13       30.18R
BEATRICE       SUNNY     74  57  56 N8G17     30.20S
FALLS CITY     MOSUNNY   75  64  68 N12       30.15S
NEBRASKA CITY  SUNNY     73  55  52 N9        30.18R
PLATTSMOUTH    SUNNY     71  47  42 N12G18    30.19R
$$

NEZ044-045-051>053-067-221800-
OMAHA AREA

CITY           SKY/WX    TMP DP  RH WIND       PRES   REMARKS
OMAHA EPPLEY   MOSUNNY   74  48  39 N13       30.18R
BLAIR          SUNNY     71  49  45 N14       30.19S
FREMONT        SUNNY     72  50  45 N8        30.21S
MILLARD        SUNNY     74  47  38 N6G17     30.19S
OFFUTT AFB     SUNNY     73  48  40 N9        30.18R
PLATTSMOUTH    SUNNY     71  47  42 N12G18    30.19R
WAHOO          FAIR      71  53  51 N10G16    30.21R
$$




USA.gov is the U.S. government's official web portal to all federal, state and local government web resources and services.